FW2486 Weather Reports


Display with metric or nautical units.
time (UTC)temp
F
wind
direction
speed
MPH
gust
MPH
rain 1hr
in
rain 24hr
in
rain mn
in
humidity
%
barometer
mb
20260508104532 44 201 6.0 109.0 2.39 2.39 2.39 72 1019.5
20260508103035 44 230 7.0 56.0 2.39 2.39 0.00 72 1019.5
20260508101534 44 195 1.0 74.0 0.00 0.00 0.00 69 1019.6
20260508094533 47 228 9.0 99.0 0.00 0.00 0.00 61 1019.6
20260508093032 48 170 4.0 10.0 0.00 0.00 0.00 61 1019.5
20260508091535 48 145 5.0 11.0 0.00 0.00 0.00 60 1019.5
20260508084533 48 145 5.0 8.0 0.00 0.00 0.00 61 1019.5
20260508083142 47 149 4.0 9.0 0.00 0.00 0.00 62 1019.5
20260508081529 47 140 5.0 18.0 0.00 0.00 0.00 62 1019.5
20260508080035 49 166 2.0 4.0 0.00 0.00 0.00 59 1019.5
20260508073107 51 143 9.0 68.0 0.00 0.00 0.00 56 1019.5
20260508071536 51 142 6.0 29.0 0.00 0.00 0.00 54 1019.5
20260508070036 53 158 4.0 20.0 0.00 0.00 0.00 52 1019.6
20260508064644 54 147 5.0 10.0 0.00 0.00 0.00 50 1019.6
20260508063035 55 139 5.0 9.0 0.00 0.00 0.00 48 1019.7
20260508061532 55 132 5.0 7.0 0.00 0.00 0.00 47 1019.7
20260508060034 56 136 5.0 14.0 0.00 0.00 0.00 45 1019.8
20260508054536 57 141 4.0 8.0 0.00 0.00 0.00 43 1019.8
20260508053034 57 142 5.0 9.0 0.00 0.00 0.00 42 1019.8
20260508050146 58 146 6.0 10.0 0.00 0.00 0.00 40 1019.8
20260508044534 58 150 4.0 8.0 0.00 0.00 0.00 41 1019.7
20260508043029 58 157 4.0 11.0 0.00 0.00 0.00 40 1019.6
20260508041534 58 156 4.0 8.0 0.00 0.00 0.00 38 1019.5
20260508040033 59 171 4.0 8.0 0.00 0.00 0.00 36 1019.3
20260508034534 59 143 6.0 17.0 0.00 0.00 0.00 33 1019.1
20260508033030 60 152 5.0 10.0 0.00 0.00 0.00 31 1018.9
20260508031532 62 160 4.0 12.0 0.00 0.00 0.00 27 1018.8
20260508030143 62 164 4.0 8.0 0.00 0.00 0.00 26 1018.9
20260508024534 65 162 3.0 10.0 0.00 0.00 0.00 26 1018.8
20260508023034 66 169 7.0 24.0 0.00 0.00 0.00 25 1018.7
20260508021608 68 210 3.0 12.0 0.00 0.00 0.00 25 1018.7
20260508020034 69 193 4.0 19.0 0.00 0.00 0.00 24 1018.6
20260508013031 71 189 5.0 17.0 0.00 0.00 0.00 24 1018.6
20260508011607 72 223 7.0 19.0 0.00 0.00 0.00 23 1018.7
20260508010036 72 215 9.0 21.0 0.00 0.00 0.00 22 1018.7
20260508004651 72 215 6.0 18.0 0.00 0.00 0.00 21 1018.6
20260508003033 73 225 4.0 17.0 0.00 0.00 0.00 21 1018.5
20260508000038 74 239 9.0 21.0 0.00 0.00 0.00 20 1018.5
20260507234542 74 211 6.0 15.0 0.00 0.00 0.00 21 1018.5
20260507234536 75 230 5.0 18.0 0.00 0.00 0.00 21 1018.5
20260507231533 74 218 5.0 21.0 0.00 0.00 0.00 22 1018.7
20260507230029 74 213 7.0 18.0 0.00 0.00 0.00 22 1018.8
20260507224536 74 204 6.0 16.0 0.00 0.00 0.00 23 1018.8
20260507223106 73 196 7.0 13.0 0.00 0.00 0.00 23 1019.0
20260507221537 73 195 6.0 14.0 0.00 0.00 0.00 23 1019.2
20260507220038 73 194 6.0 15.0 0.00 0.00 0.00 24 1019.3
20260507214534 74 196 6.0 16.0 0.00 0.00 0.00 24 1019.4
20260507213037 73 190 5.0 16.0 0.00 0.00 0.00 26 1019.5
20260507204536 72 204 7.0 13.0 0.00 0.00 0.00 26 1019.8
20260507203106 72 190 7.0 15.0 0.00 0.00 0.00 26 1019.9
20260507201537 71 209 6.0 12.0 0.00 0.00 0.00 27 1020.1
20260507194535 70 202 6.0 12.0 0.00 0.00 0.00 29 1020.3
20260507193037 69 200 7.0 15.0 0.00 0.00 0.00 29 1020.5
20260507191535 69 203 7.0 13.0 0.00 0.00 0.00 31 1020.6
20260507190035 68 203 4.0 14.0 0.00 0.00 0.00 33 1020.6
20260507183147 66 205 5.0 11.0 0.00 0.00 0.00 36 1020.9
20260507181642 66 192 5.0 11.0 0.00 0.00 0.00 38 1021.0
20260507180106 65 193 5.0 9.0 0.00 0.00 0.00 39 1021.1
20260507174642 64 205 6.0 13.0 0.00 0.00 0.00 41 1021.3
20260507173033 63 211 5.0 13.0 0.00 0.00 0.00 41 1021.4
20260507171539 62 215 5.0 14.0 0.00 0.00 0.00 44 1021.5
20260507170035 61 223 6.0 12.0 0.00 0.00 0.00 46 1021.5
20260507164536 60 215 5.0 11.0 0.00 0.00 0.00 48 1021.6
20260507163037 60 207 6.0 16.0 0.00 0.00 0.00 48 1021.7
20260507161533 60 201 6.0 14.0 0.00 0.00 0.00 51 1021.8
20260507160037 59 216 5.0 11.0 0.00 0.00 0.00 52 1021.9
20260507154534 59 229 5.0 19.0 0.00 0.00 0.00 53 1021.9
20260507151536 58 233 4.0 12.0 0.00 0.00 0.00 56 1022.2
20260507150048 58 242 4.0 10.0 0.00 0.00 0.00 57 1022.2
20260507143037 55 258 3.0 11.0 0.00 0.00 0.00 67 1022.0
20260507141531 53 108 2.0 11.0 0.00 0.00 0.00 69 1021.9
20260507140035 52 217 3.0 36.0 0.00 0.00 0.00 70 1021.8
20260507134538 52 217 3.0 24.0 0.00 0.00 0.00 72 1021.8
20260507133032 53 197 3.0 13.0 0.00 0.00 0.00 72 1021.8
20260507131607 53 197 4.0 14.0 0.00 0.00 0.00 72 1021.9
20260507130031 53 186 5.0 14.0 0.00 0.00 0.00 72 1021.8
20260507124643 54 173 4.0 13.0 0.00 0.00 0.00 72 1021.9
20260507123107 54 156 5.0 22.0 0.00 0.00 0.00 73 1021.8
20260507121535 54 144 5.0 14.0 0.00 0.00 0.00 73 1021.8
20260507120031 54 144 7.0 21.0 0.00 0.00 0.00 73 1021.7
20260507114535 54 140 8.0 17.0 0.00 0.00 0.00 74 1021.6
20260507113108 54 142 7.0 19.0 0.00 0.00 0.00 74 1021.6
20260507110035 54 152 7.0 16.0 0.00 0.00 0.00 74 1021.5